Weather History for South Lake Tahoe, CA

Change the Weather History Date:

Sunday, April 1, 2012

  Actual Average Record
Temperature  
Mean Temperature 34 °F 38 °F  
Max Temperature 42 °F 51 °F 68 °F (2011)
Min Temperature 26 °F 25 °F 0 °F (1975)
Degree Days  
Heating Degree Days 31 27  
Month to date heating degree days 31 27  
Since 1 July heating degree days 5568 6179  
Cooling Degree Days 0 0  
Month to date cooling degree days 0 0  
Year to date cooling degree days 0 0  
Moisture  
Dew Point 21 °F    
Average Humidity 61    
Maximum Humidity 81    
Minimum Humidity 40    
Precipitation  
Precipitation 0.01 in - 0.78 in (1958)
Month to date precipitation 0.01  
Year to date precipitation 8.84  
Sea Level Pressure  
Sea Level Pressure 29.97 in    
Wind  
Wind Speed 7 mph (South)    
Max Wind Speed 20 mph    
Max Gust Speed 33 mph    
Visibility 6 miles    
Events Fog , Snow    
T = Trace of Precipitation, MM = Missing Value Source: NWS Daily Summary

Daily Weather History Graph

Daily Weather History Graph

Search for Another Location

Airport:

Trip Planner

Search our weather history database for the weather conditions in past years. The results will help you decide how hot, cold, wet, or windy it might be!

Date:

Astronomy

Apr. 01, 2012 Rise Set
Actual Time 6:43 AM PDT 7:24 PM PDT
Civil Twilight 6:16 AM PDT 7:51 PM PDT
Nautical Twilight 5:45 AM PDT 8:22 PM PDT
Astronomical Twilight 5:12 AM PDT 8:55 PM PDT
Moon 2:02 PM PDT (4/1) 3:20 AM PDT (4/1)
Length of Visible Light 13h 34m
Length of Day
12h 40m
Waxing Gibbous, 70% of the Moon is Illuminated
Apr 1
Waxing Gibbous
Apr 6
Full
Apr 13
Last Quarter
Apr 21
New
Apr 29
First Quarter

Hourly Weather History & Observations

Time (PDT) Temp. Windchill Dew Point Humidity Pressure Visibility Wind Dir Wind Speed Gust Speed Precip Events Conditions
12:04 AM 26.6 °F 15.2 °F 19.4 °F 74% 29.78 in 4.0 mi SSE 13.8 mph 21.9 mph 0.00 in Snow Light Snow
12:22 AM 28.4 °F 24.6 °F 19.4 °F 69% 29.79 in 3.0 mi Variable 3.5 mph 18.4 mph 0.00 in Snow Light Snow
12:31 AM 28.4 °F 18.5 °F 19.4 °F 69% 29.79 in 5.0 mi SSE 11.5 mph 20.7 mph 0.00 in Snow Light Snow
12:36 AM 28.4 °F 16.2 °F 19.4 °F 69% 29.79 in 2.5 mi SSE 17.3 mph 26.5 mph 0.00 in Snow Light Snow
12:42 AM 28.4 °F 19.1 °F 19.4 °F 69% 29.80 in 1.2 mi SSE 10.4 mph 26.5 mph 0.00 in Snow Light Snow
12:53 AM 28.0 °F 20.0 °F 21.0 °F 75% 29.80 in 1.0 mi SE 8.1 mph 20.7 mph 0.00 in Snow Light Snow
1:06 AM 28.4 °F 17.0 °F 19.4 °F 69% 29.80 in 3.0 mi South 15.0 mph 25.3 mph 0.00 in Snow Light Snow
1:12 AM 28.4 °F 19.7 °F 21.2 °F 74% 29.80 in 1.8 mi South 9.2 mph 25.3 mph 0.00 in Snow Light Snow
1:42 AM 28.4 °F 18.0 °F 19.4 °F 69% 29.81 in 3.0 mi SSE 12.7 mph 33.4 mph 0.00 in Snow Light Snow
1:53 AM 28.9 °F 20.4 °F 19.9 °F 69% 29.81 in 5.0 mi SE 9.2 mph 25.3 mph 0.00 in Snow Light Snow
2:46 AM 30.2 °F 21.9 °F 19.4 °F 64% 29.83 in 10.0 mi SSW 9.2 mph 19.6 mph 0.00 in   Overcast
2:53 AM 30.0 °F 21.7 °F 19.0 °F 64% 29.84 in 10.0 mi SSW 9.2 mph 19.6 mph 0.00 in   Overcast
3:53 AM 28.4 °F 18.5 °F 17.6 °F 64% 29.88 in 10.0 mi SSW 11.5 mph 16.1 mph N/A   Overcast
4:46 AM 28.4 °F 20.4 °F 19.4 °F 69% 29.89 in 5.0 mi South 8.1 mph - 0.00 in Snow Light Snow
4:53 AM 28.4 °F 19.7 °F 19.4 °F 69% 29.89 in 3.0 mi South 9.2 mph 17.3 mph N/A Snow Light Snow
5:21 AM 26.6 °F 20.0 °F 21.2 °F 80% 29.90 in 5.0 mi SSW 5.8 mph - 0.00 in Snow Light Snow
5:53 AM 28.0 °F 20.8 °F 19.9 °F 72% 29.94 in 6.0 mi SSW 6.9 mph - 0.00 in Snow Light Snow
6:16 AM 28.4 °F 23.3 °F 21.2 °F 74% 29.92 in 3.0 mi South 4.6 mph - 0.00 in Snow Light Snow
6:27 AM 28.4 °F 20.4 °F 21.2 °F 74% 29.92 in 6.0 mi South 8.1 mph - 0.00 in Snow Light Snow
6:42 AM 28.4 °F 22.2 °F 21.2 °F 74% 29.93 in 4.0 mi South 5.8 mph - 0.00 in Snow Light Snow
6:53 AM 28.0 °F 24.2 °F 21.9 °F 78% 29.96 in 2.0 mi South 3.5 mph - 0.00 in Snow Light Snow
7:00 AM 28.4 °F - 21.2 °F 74% 29.94 in 0.8 mi Calm Calm - 0.00 in Snow Light Snow
7:08 AM 26.6 °F 22.6 °F 23.0 °F 86% 29.94 in 0.5 mi SSW 3.5 mph - 0.01 in Fog , Snow Light Snow
7:16 AM 28.4 °F - 21.2 °F 74% 29.95 in 0.8 mi Calm Calm - 0.01 in Snow Light Snow
7:25 AM 28.4 °F 24.6 °F 23.0 °F 80% 29.95 in 1.2 mi SSW 3.5 mph - 0.01 in Snow Light Snow
7:42 AM 28.4 °F - 23.0 °F 80% 29.97 in 0.5 mi Calm Calm - 0.01 in Snow Snow
7:53 AM 28.0 °F 21.7 °F 23.0 °F 81% 29.99 in 1.2 mi South 5.8 mph - 0.01 in Snow Light Snow
8:01 AM 26.6 °F 22.6 °F 21.2 °F 80% 29.98 in 3.0 mi South 3.5 mph - 0.00 in Snow Light Snow
8:11 AM 28.4 °F - 23.0 °F 80% 29.98 in 7.0 mi Calm Calm - 0.00 in   Overcast
8:20 AM 28.4 °F - 23.0 °F 80% 29.99 in 4.0 mi Calm Calm - 0.00 in Snow Light Snow
8:25 AM 28.4 °F - 23.0 °F 80% 29.99 in 1.8 mi Calm Calm - 0.00 in Snow Light Snow
8:43 AM 28.4 °F 23.3 °F 23.0 °F 80% 29.99 in 1.5 mi South 4.6 mph - 0.00 in Snow Light Snow
8:53 AM 27.0 °F - 21.9 °F 81% 30.03 in 3.0 mi Calm Calm - 0.00 in Snow Light Snow
9:06 AM 30.2 °F - 23.0 °F 75% 30.00 in 8.0 mi Calm Calm - 0.00 in Snow Light Snow
9:16 AM 30.2 °F - 21.2 °F 69% 30.01 in 10.0 mi Calm Calm - 0.00 in   Mostly Cloudy
9:53 AM 33.1 °F - 18.0 °F 54% 30.03 in 10.0 mi Calm Calm - 0.00 in   Mostly Cloudy
10:53 AM 34.0 °F - 17.1 °F 50% 30.07 in 10.0 mi Calm Calm - N/A   Mostly Cloudy
11:53 AM 36.0 °F 30.3 °F 18.0 °F 48% 30.08 in 10.0 mi NE 6.9 mph - N/A   Partly Cloudy
12:53 PM 37.0 °F 31.6 °F 19.0 °F 48% 30.09 in 10.0 mi NE 6.9 mph - N/A   Clear
1:53 PM 39.0 °F 34.8 °F 18.0 °F 43% 30.09 in 10.0 mi ENE 5.8 mph - N/A   Clear
2:53 PM 41.0 °F 36.4 °F 19.0 °F 41% 30.08 in 10.0 mi NNE 6.9 mph - N/A   Clear
3:53 PM 39.9 °F 33.9 °F 18.0 °F 41% 30.12 in 10.0 mi NNE 9.2 mph 16.1 mph N/A   Clear
4:53 PM 39.9 °F 36.7 °F 21.0 °F 47% 30.12 in 10.0 mi Variable 4.6 mph - N/A   Clear
5:53 PM 37.9 °F 34.4 °F 18.0 °F 45% 30.14 in 10.0 mi NNE 4.6 mph - N/A   Clear
6:53 PM 34.0 °F - 25.0 °F 70% 30.16 in 10.0 mi Calm Calm - N/A   Clear
7:53 PM 32.0 °F - 24.1 °F 73% 30.17 in 10.0 mi Calm Calm - N/A   Clear
8:53 PM 30.0 °F - 23.0 °F 75% 30.20 in 10.0 mi Calm Calm - N/A   Clear
9:53 PM 28.9 °F - 23.0 °F 78% 30.21 in 10.0 mi Calm Calm - N/A   Clear
10:53 PM 28.9 °F - 23.0 °F 78% 30.21 in 10.0 mi Calm Calm - N/A   Clear
11:53 PM 27.0 °F 21.6 °F 21.9 °F 81% 30.21 in 9.0 mi SSW 4.6 mph - N/A   Clear